TimePST,TemperatureF,Dew PointF,Humidity,Sea Level PressureIn,VisibilityMPH,Wind Direction,Wind SpeedMPH,Gust SpeedMPH,PrecipitationIn,Events,Conditions,WindDirDegrees,DateUTC
12:53 AM,19.9,15.1,81,30.20,10.0,West,4.6,-,N/A,,Clear,280,2013-03-04 08:53:00
1:53 AM,19.0,14.0,81,30.22,10.0,West,4.6,-,N/A,,Clear,260,2013-03-04 09:53:00
2:53 AM,16.0,12.0,84,30.22,10.0,Calm,Calm,-,N/A,,Clear,0,2013-03-04 10:53:00
3:53 AM,18.0,14.0,84,30.22,10.0,West,6.9,-,N/A,,Clear,270,2013-03-04 11:53:00
4:53 AM,16.0,12.0,84,30.24,10.0,Calm,Calm,-,N/A,,Clear,0,2013-03-04 12:53:00
5:53 AM,16.0,12.0,84,30.27,10.0,North,3.5,-,N/A,,Clear,360,2013-03-04 13:53:00
6:53 AM,17.1,12.9,84,30.28,10.0,WNW,3.5,-,N/A,,Clear,300,2013-03-04 14:53:00
7:53 AM,26.1,18.0,71,30.27,10.0,Calm,Calm,-,N/A,,Clear,0,2013-03-04 15:53:00
8:53 AM,30.0,19.9,66,30.27,10.0,SE,4.6,-,N/A,,Clear,140,2013-03-04 16:53:00
9:53 AM,35.1,15.1,44,30.25,10.0,East,8.1,-,N/A,,Clear,80,2013-03-04 17:53:00
12:53 PM,41.0,14.0,33,30.19,10.0,ESE,9.2,17.3,N/A,,Clear,110,2013-03-04 20:53:00
1:53 PM,42.1,14.0,32,30.16,10.0,ENE,8.1,19.6,N/A,,Clear,70,2013-03-04 21:53:00
2:53 PM,43.0,15.1,32,30.16,10.0,SE,6.9,-,N/A,,Clear,140,2013-03-04 22:53:00
3:53 PM,44.1,16.0,32,30.14,10.0,ENE,6.9,-,N/A,,Clear,70,2013-03-04 23:53:00
4:53 PM,42.1,17.1,37,30.13,10.0,ENE,5.8,-,N/A,,Clear,70,2013-03-05 00:53:00
5:53 PM,35.1,21.9,59,30.14,10.0,NE,9.2,-,N/A,,Clear,40,2013-03-05 01:53:00
6:53 PM,32.0,19.9,61,30.14,10.0,NNE,10.4,-,N/A,,Clear,30,2013-03-05 02:53:00
7:53 PM,30.9,19.0,61,30.11,10.0,NNE,9.2,-,N/A,,Clear,30,2013-03-05 03:53:00
8:53 PM,30.9,19.0,61,30.10,10.0,NNE,8.1,-,N/A,,Clear,30,2013-03-05 04:53:00
9:53 PM,32.0,17.1,54,30.07,10.0,NE,12.7,-,N/A,,Clear,40,2013-03-05 05:53:00
10:53 PM,32.0,17.1,54,30.05,10.0,NE,10.4,-,N/A,,Clear,40,2013-03-05 06:53:00
11:53 PM,32.0,17.1,54,30.04,10.0,NE,9.2,-,N/A,,Clear,40,2013-03-05 07:53:00